TimeCDT,TemperatureF,Dew PointF,Humidity,Sea Level PressureIn,VisibilityMPH,Wind Direction,Wind SpeedMPH,Gust SpeedMPH,PrecipitationIn,Events,Conditions,WindDirDegrees,DateUTC
12:13 AM,42.8,35.6,76,29.72,10.0,SSW,4.6,-,N/A,,Mostly Cloudy,200,2012-10-09 05:13:00
12:33 AM,42.8,35.6,76,29.71,10.0,SSW,4.6,-,N/A,,Mostly Cloudy,200,2012-10-09 05:33:00
12:53 AM,42.8,35.6,76,29.72,10.0,SSW,4.6,-,N/A,,Unknown,210,2012-10-09 05:53:00
1:13 AM,42.8,35.6,76,29.72,10.0,SSW,4.6,-,N/A,,Unknown,200,2012-10-09 06:13:00
1:33 AM,41.0,35.6,81,29.72,10.0,SSW,3.5,-,N/A,,Clear,200,2012-10-09 06:33:00
1:53 AM,41.0,35.6,81,29.72,10.0,SSW,3.5,-,N/A,,Clear,200,2012-10-09 06:53:00
2:13 AM,39.2,35.6,87,29.72,10.0,Calm,Calm,-,N/A,,Clear,0,2012-10-09 07:13:00
2:33 AM,39.2,35.6,87,29.72,10.0,Calm,Calm,-,N/A,,Clear,0,2012-10-09 07:33:00
3:13 AM,39.2,35.6,87,29.71,10.0,Calm,Calm,-,N/A,,Scattered Clouds,0,2012-10-09 08:13:00
3:33 AM,39.2,35.6,87,29.70,10.0,SSW,3.5,-,N/A,,Mostly Cloudy,210,2012-10-09 08:33:00
3:53 AM,39.2,35.6,87,29.70,10.0,SW,3.5,-,N/A,,Mostly Cloudy,230,2012-10-09 08:53:00
4:13 AM,41.0,35.6,81,29.70,10.0,Calm,Calm,-,N/A,,Mostly Cloudy,0,2012-10-09 09:13:00
4:33 AM,41.0,35.6,81,29.71,10.0,Calm,Calm,-,N/A,,Unknown,0,2012-10-09 09:33:00
4:53 AM,41.0,35.6,81,29.72,10.0,WSW,3.5,-,N/A,,Overcast,240,2012-10-09 09:53:00
5:13 AM,41.0,35.6,81,29.72,10.0,WSW,3.5,-,N/A,,Unknown,240,2012-10-09 10:13:00
5:33 AM,42.8,35.6,76,29.72,10.0,WSW,3.5,-,N/A,,Unknown,250,2012-10-09 10:33:00
5:53 AM,42.8,35.6,76,29.72,10.0,WSW,3.5,-,N/A,,Overcast,250,2012-10-09 10:53:00
6:13 AM,42.8,35.6,76,29.72,10.0,WSW,4.6,-,N/A,,Overcast,250,2012-10-09 11:13:00
6:33 AM,42.8,35.6,76,29.73,10.0,WSW,5.8,-,N/A,,Overcast,250,2012-10-09 11:33:00
6:53 AM,42.8,33.8,70,29.74,10.0,WSW,5.8,-,N/A,,Overcast,240,2012-10-09 11:53:00
7:13 AM,42.8,33.8,70,29.74,10.0,WSW,4.6,-,N/A,,Overcast,240,2012-10-09 12:13:00
7:33 AM,42.8,33.8,70,29.74,10.0,SW,4.6,-,N/A,,Overcast,220,2012-10-09 12:33:00
7:53 AM,42.8,33.8,70,29.74,10.0,SW,10.4,-,N/A,,Overcast,230,2012-10-09 12:53:00
8:13 AM,42.8,30.2,61,29.75,10.0,WSW,8.1,-,N/A,,Mostly Cloudy,240,2012-10-09 13:13:00
8:33 AM,44.6,30.2,57,29.75,10.0,SW,6.9,-,N/A,,Mostly Cloudy,230,2012-10-09 13:33:00
8:53 AM,44.6,30.2,57,29.75,10.0,WSW,6.9,-,N/A,,Unknown,240,2012-10-09 13:53:00
9:13 AM,44.6,30.2,57,29.75,10.0,WSW,8.1,-,N/A,,Unknown,240,2012-10-09 14:13:00
9:33 AM,44.6,30.2,57,29.75,10.0,WSW,9.2,18.4,N/A,,Unknown,250,2012-10-09 14:33:00
9:53 AM,44.6,28.4,53,29.75,10.0,West,17.3,23.0,N/A,,Unknown,260,2012-10-09 14:53:00
10:13 AM,44.6,28.4,53,29.76,10.0,West,16.1,24.2,N/A,,Unknown,270,2012-10-09 15:13:00
10:33 AM,46.4,28.4,50,29.76,10.0,West,13.8,20.7,N/A,,Unknown,260,2012-10-09 15:33:00
10:53 AM,46.4,26.6,46,29.76,10.0,West,16.1,26.5,N/A,,Unknown,270,2012-10-09 15:53:00
11:13 AM,48.2,26.6,43,29.76,10.0,West,17.3,29.9,N/A,,Unknown,270,2012-10-09 16:13:00
11:33 AM,46.4,24.8,43,29.76,10.0,West,17.3,24.2,N/A,,Unknown,260,2012-10-09 16:33:00
11:53 AM,46.4,24.8,43,29.76,10.0,WSW,17.3,23.0,N/A,,Unknown,250,2012-10-09 16:53:00
12:13 PM,46.4,26.6,46,29.76,10.0,West,16.1,24.2,N/A,,Unknown,270,2012-10-09 17:13:00
12:33 PM,46.4,26.6,46,29.76,10.0,West,17.3,25.3,N/A,,Unknown,260,2012-10-09 17:33:00
12:53 PM,46.4,26.6,46,29.77,10.0,WSW,15.0,-,N/A,,Unknown,250,2012-10-09 17:53:00
1:13 PM,46.4,26.6,46,29.77,10.0,West,17.3,24.2,N/A,,Overcast,260,2012-10-09 18:13:00
1:33 PM,46.4,28.4,50,29.76,10.0,WSW,16.1,26.5,N/A,,Overcast,250,2012-10-09 18:33:00
1:53 PM,46.4,26.6,46,29.77,10.0,West,17.3,23.0,N/A,,Overcast,270,2012-10-09 18:53:00
2:13 PM,46.4,28.4,50,29.77,10.0,West,17.3,-,N/A,,Overcast,260,2012-10-09 19:13:00
2:32 PM,44.6,28.4,53,29.77,10.0,West,15.0,20.7,N/A,,Overcast,260,2012-10-09 19:32:00
2:53 PM,44.6,28.4,53,29.78,10.0,West,16.1,23.0,N/A,,Overcast,270,2012-10-09 19:53:00
3:13 PM,46.4,30.2,53,29.79,10.0,West,11.5,20.7,N/A,,Overcast,280,2012-10-09 20:13:00
3:32 PM,46.4,30.2,53,29.79,10.0,West,10.4,18.4,N/A,,Overcast,260,2012-10-09 20:32:00
3:53 PM,44.6,32.0,61,29.80,10.0,West,19.6,26.5,N/A,,Overcast,270,2012-10-09 20:53:00
4:13 PM,44.6,32.0,61,29.81,10.0,West,17.3,24.2,N/A,,Overcast,260,2012-10-09 21:13:00
4:33 PM,44.6,30.2,57,29.82,10.0,WNW,15.0,25.3,N/A,,Overcast,290,2012-10-09 21:33:00
4:53 PM,42.8,28.4,57,29.83,10.0,WNW,17.3,29.9,N/A,,Overcast,290,2012-10-09 21:53:00
5:13 PM,44.6,28.4,53,29.83,10.0,West,18.4,23.0,N/A,,Mostly Cloudy,280,2012-10-09 22:13:00
5:53 PM,42.8,24.8,49,29.86,10.0,West,18.4,27.6,N/A,,Overcast,280,2012-10-09 22:53:00
6:13 PM,42.8,24.8,49,29.87,10.0,WNW,15.0,23.0,N/A,,Mostly Cloudy,290,2012-10-09 23:13:00
6:33 PM,42.8,24.8,49,29.88,10.0,WNW,12.7,20.7,N/A,,Mostly Cloudy,290,2012-10-09 23:33:00
6:53 PM,41.0,24.8,53,29.89,10.0,West,11.5,-,N/A,,Overcast,280,2012-10-09 23:53:00
7:12 PM,41.0,24.8,53,29.90,10.0,West,13.8,23.0,N/A,,Overcast,280,2012-10-10 00:12:00
7:33 PM,41.0,24.8,53,29.91,10.0,West,16.1,20.7,N/A,,Overcast,280,2012-10-10 00:33:00
7:53 PM,41.0,24.8,53,29.91,10.0,West,15.0,20.7,N/A,,Overcast,280,2012-10-10 00:53:00
8:13 PM,39.2,24.8,56,29.92,10.0,West,12.7,23.0,N/A,,Overcast,270,2012-10-10 01:13:00
8:33 PM,39.2,24.8,56,29.93,10.0,West,12.7,-,N/A,,Mostly Cloudy,280,2012-10-10 01:33:00
8:53 PM,37.4,24.8,60,29.93,10.0,West,15.0,20.7,N/A,,Mostly Cloudy,280,2012-10-10 01:53:00
9:13 PM,37.4,24.8,60,29.94,10.0,West,15.0,18.4,N/A,,Scattered Clouds,280,2012-10-10 02:13:00
9:33 PM,35.6,24.8,65,29.95,10.0,West,10.4,17.3,N/A,,Scattered Clouds,280,2012-10-10 02:33:00
9:53 PM,35.6,24.8,65,29.95,10.0,West,8.1,-,N/A,,Clear,280,2012-10-10 02:53:00
10:12 PM,33.8,24.8,70,29.95,10.0,West,6.9,-,N/A,,Clear,270,2012-10-10 03:12:00
10:33 PM,33.8,24.8,70,29.96,10.0,West,6.9,-,N/A,,Clear,270,2012-10-10 03:33:00
10:53 PM,33.8,24.8,70,29.96,10.0,West,6.9,-,N/A,,Clear,280,2012-10-10 03:53:00
11:13 PM,33.8,24.8,70,29.96,10.0,West,8.1,-,N/A,,Scattered Clouds,270,2012-10-10 04:13:00
11:33 PM,33.8,24.8,70,29.97,10.0,West,8.1,-,N/A,,Mostly Cloudy,270,2012-10-10 04:33:00
11:53 PM,35.6,24.8,65,29.97,10.0,West,6.9,-,N/A,,Overcast,270,2012-10-10 04:53:00